Total_Precipitation_Accumulation
0.53 0.51 0.53 0.59 0.60 0.62 0.64 0.63 0.61 0.69 0.73 0.78 0.92 1.15 1.43 1.53 1.63 1.55 1.35 1.28 1.40 1.69 1.93 1.89 1.97 2.04 1.96 1.92 1.93 2.16 2.09 1.80 1.62 1.73 1.58 1.41 1.29 1.46 1.53 1.48 1.58 1.67 1.80
0.44 0.40 0.42 0.45 0.47 0.50 0.55 0.58 0.57 0.65 0.71 0.75 0.92 1.10 1.26 1.26 1.43 1.55 1.51 1.44 1.41 1.56 1.73 2.03 2.17 2.14 2.26 2.36 2.35 2.71 2.84 2.33 1.89 2.01 2.28 2.01 1.80 1.61 1.49 1.55 1.61 1.75 1.99
0.43 0.40 0.38 0.38 0.39 0.40 0.39 0.42 0.47 0.54 0.66 0.81 1.02 1.25 1.47 1.54 1.57 1.48 1.56 1.57 1.48 1.54 1.66 1.83 1.98 2.02 2.16 2.35 2.46 2.78 3.33 3.08 2.40 2.22 2.66 2.45 2.22 2.09 1.77 1.61 1.61 1.68 1.95
0.41 0.46 0.41 0.43 0.40 0.37 0.34 0.36 0.46 0.60 0.80 1.00 1.23 1.48 1.69 1.73 1.60 1.59 1.63 1.52 1.43 1.42 1.54 1.67 1.78 1.90 1.97 2.14 2.23 2.37 2.96 3.37 3.03 2.72 2.41 2.10 2.06 2.26 2.26 1.90 1.70 1.68 1.81
0.39 0.41 0.40 0.43 0.44 0.42 0.42 0.47 0.66 0.88 1.14 1.36 1.63 1.92 1.89 1.77 1.66 1.62 1.61 1.55 1.53 1.50 1.51 1.67 1.73 1.74 1.83 1.97 2.30 2.57 2.88 3.12 3.14 3.12 2.89 2.59 2.32 1.99 2.28 2.34 2.00 1.85 1.81
0.40 0.48 0.54 0.63 0.69 0.71 0.85 1.03 1.28 1.44 1.54 1.66 1.83 1.95 1.90 1.88 1.82 1.64 1.56 1.55 1.59 1.64 1.66 1.72 1.74 1.71 1.75 1.87 2.12 2.44 2.68 3.00 3.24 3.19 2.98 2.85 2.72 2.47 2.40 2.28 2.12 2.14 1.99
0.46 0.61 0.78 0.92 1.05 1.20 1.35 1.48 1.62 1.76 1.71 1.68 1.76 1.81 1.78 1.75 1.73 1.66 1.59 1.52 1.52 1.56 1.60 1.67 1.80 1.87 1.91 2.03 2.21 2.39 2.33 2.53 2.97 3.00 2.86 2.78 2.61 2.54 2.60 2.54 2.22 2.09 1.84
0.64 0.77 0.85 0.97 1.15 1.32 1.40 1.40 1.48 1.60 1.58 1.55 1.55 1.55 1.59 1.58 1.53 1.44 1.41 1.44 1.52 1.50 1.45 1.48 1.59 1.71 1.90 1.96 2.03 2.09 2.06 2.16 2.42 2.54 2.73 2.85 2.64 2.53 2.42 2.40 2.45 2.21 1.93
0.91 1.07 1.19 1.30 1.34 1.40 1.48 1.40 1.38 1.45 1.48 1.43 1.38 1.40 1.41 1.45 1.44 1.36 1.36 1.33 1.32 1.25 1.17 1.16 1.24 1.32 1.40 1.50 1.65 1.76 1.87 1.93 2.07 2.21 2.35 2.52 2.66 2.60 2.41 2.39 2.38 2.36 2.16
1.15 1.45 1.73 1.89 1.70 1.45 1.39 1.39 1.31 1.33 1.44 1.45 1.39 1.36 1.42 1.43 1.40 1.39 1.33 1.30 1.30 1.21 1.12 1.06 1.03 1.02 0.97 1.02 1.21 1.42 1.54 1.65 1.82 2.01 2.15 2.20 2.27 2.47 2.47 2.34 2.34 2.28 2.15
1.28 1.45 1.69 1.88 1.78 1.46 1.25 1.30 1.36 1.36 1.39 1.39 1.41 1.39 1.36 1.25 1.24 1.26 1.23 1.19 1.17 1.21 1.18 1.10 1.04 1.11 1.08 1.02 1.09 1.15 1.21 1.30 1.47 1.61 1.74 1.91 2.16 2.46 2.51 2.48 2.38 2.32 2.20
1.20 1.19 1.27 1.35 1.41 1.28 1.08 1.06 1.22 1.32 1.32 1.31 1.34 1.33 1.21 1.12 1.10 1.09 1.01 0.89 0.84 0.84 0.94 1.05 1.00 0.98 0.99 0.99 1.05 1.06 1.10 1.17 1.29 1.40 1.53 1.72 2.00 2.34 2.55 2.65 2.54 2.41 2.30
1.21 1.18 1.10 1.05 1.08 1.06 0.99 0.97 1.11 1.26 1.32 1.31 1.20 1.09 1.03 1.00 1.01 0.94 0.88 0.83 0.72 0.68 0.71 0.80 0.79 0.88 0.97 0.99 1.02 1.03 1.06 1.11 1.21 1.36 1.43 1.48 1.68 1.88 2.08 2.27 2.41 2.38 2.36
0.92 0.89 0.85 0.78 0.76 0.80 0.85 0.91 1.04 1.13 1.26 1.38 1.29 1.15 1.05 1.01 0.97 0.92 0.88 0.82 0.77 0.77 0.79 0.88 0.91 0.86 0.85 0.90 0.99 1.04 1.02 1.01 1.04 1.12 1.22 1.32 1.38 1.55 1.68 1.79 2.01 2.22 2.46
0.53 0.55 0.60 0.59 0.52 0.51 0.52 0.63 0.79 0.95 1.15 1.39 1.38 1.24 1.17 1.10 0.97 0.89 0.89 0.87 0.89 0.85 0.84 0.92 1.01 1.05 1.01 0.98 1.03 1.00 1.00 1.03 1.00 1.04 1.03 1.11 1.16 1.24 1.41 1.44 1.67 1.99 2.27
0.37 0.40 0.42 0.47 0.39 0.33 0.35 0.38 0.50 0.70 0.87 1.07 1.16 1.13 1.04 0.92 0.88 0.88 0.83 0.79 0.78 0.75 0.71 0.73 0.78 0.86 0.93 1.19 1.11 0.91 0.86 0.92 0.98 1.02 1.02 1.05 1.00 0.99 1.07 1.20 1.31 1.59 1.82
0.30 0.33 0.35 0.39 0.40 0.37 0.34 0.36 0.43 0.52 0.64 0.81 0.93 0.92 0.87 0.77 0.75 0.77 0.73 0.68 0.62 0.62 0.60 0.60 0.57 0.61 0.79 0.92 0.75 0.71 0.72 0.85 0.97 1.05 1.10 1.07 1.00 1.03 1.04 1.07 1.08 1.13 1.32
0.31 0.31 0.33 0.34 0.33 0.34 0.35 0.36 0.38 0.40 0.46 0.56 0.63 0.66 0.66 0.64 0.64 0.64 0.62 0.63 0.58 0.54 0.52 0.57 0.63 0.64 0.69 0.78 0.64 0.60 0.66 0.86 0.99 1.00 0.97 1.06 1.09 1.12 1.17 1.10 1.14 1.07 1.05
0.21 0.21 0.21 0.21 0.22 0.23 0.26 0.29 0.33 0.35 0.34 0.37 0.42 0.47 0.49 0.53 0.57 0.58 0.59 0.68 0.66 0.61 0.58 0.68 0.74 0.69 0.65 0.72 0.67 0.69 0.79 0.92 1.01 0.97 0.99 1.08 1.13 1.29 1.34 1.23 1.28 1.22 1.18
0.12 0.13 0.12 0.11 0.14 0.17 0.20 0.23 0.27 0.31 0.31 0.32 0.35 0.39 0.41 0.44 0.50 0.57 0.57 0.55 0.53 0.56 0.61 0.63 0.58 0.58 0.66 0.78 0.73 0.79 0.92 1.04 1.15 1.12 1.13 1.35 1.31 1.31 1.24 1.18 1.33 1.29 1.15
0.09 0.10 0.10 0.11 0.13 0.16 0.19 0.21 0.27 0.29 0.30 0.36 0.38 0.39 0.40 0.42 0.45 0.44 0.40 0.41 0.46 0.44 0.42 0.43 0.47 0.51 0.66 0.73 0.77 0.94 0.99 1.06 1.21 1.23 1.20 1.17 1.34 1.27 1.18 1.14 1.17 1.31 1.20
0.08 0.08 0.10 0.13 0.12 0.14 0.18 0.21 0.27 0.29 0.30 0.32 0.33 0.32 0.32 0.33 0.36 0.38 0.35 0.34 0.39 0.41 0.41 0.43 0.46 0.50 0.55 0.60 0.67 0.81 0.93 1.00 1.16 1.25 1.13 1.04 1.29 1.25 1.16 1.06 1.06 1.21 1.29
0.09 0.10 0.12 0.18 0.21 0.17 0.19 0.23 0.28 0.32 0.30 0.28 0.26 0.28 0.27 0.29 0.29 0.31 0.35 0.38 0.38 0.39 0.39 0.42 0.47 0.54 0.55 0.55 0.64 0.69 0.76 0.90 1.08 1.17 1.18 1.15 1.19 1.11 1.05 1.13 1.15 1.17 1.19
0.09 0.12 0.17 0.21 0.25 0.23 0.23 0.26 0.28 0.30 0.29 0.26 0.25 0.25 0.26 0.26 0.25 0.28 0.31 0.33 0.35 0.36 0.38 0.43 0.48 0.51 0.55 0.57 0.67 0.77 0.79 0.88 0.95 0.97 1.01 1.01 0.99 0.98 0.99 1.04 1.12 1.17 1.22
0.08 0.12 0.18 0.21 0.22 0.23 0.27 0.31 0.30 0.26 0.26 0.25 0.25 0.23 0.26 0.27 0.25 0.23 0.26 0.30 0.34 0.41 0.46 0.48 0.50 0.50 0.50 0.56 0.69 0.82 0.91 1.04 1.17 1.18 1.04 0.98 0.95 0.93 0.91 0.95 1.00 1.06 1.07
0.11 0.13 0.15 0.18 0.19 0.21 0.25 0.27 0.27 0.24 0.24 0.26 0.25 0.24 0.22 0.23 0.24 0.26 0.24 0.27 0.32 0.41 0.47 0.50 0.50 0.51 0.56 0.57 0.56 0.64 0.80 1.00 1.30 1.55 1.47 1.39 1.26 1.14 1.03 0.97 0.93 0.91 0.93